| time (UTC) | temp F | wind direction | speed MPH | gust MPH | rain 1hr in | rain 24hr in | rain mn in | humidity % | barometer mb |
| 20260505061552 | 44 | 0 | 0.0 | 1.0 | 0.00 | 0.00 | 0.00 | 85 | 1006.5 |
| 20260505060059 | 44 | 0 | 0.0 | 5.0 | 0.00 | 0.00 | 0.00 | 85 | 1006.5 |
| 20260505054552 | 44 | 0 | 0.0 | 8.0 | 0.00 | 0.00 | 0.00 | 84 | 1006.1 |
| 20260505053100 | 44 | 0 | 0.0 | 0.0 | 0.00 | 0.00 | 0.00 | 84 | 1005.8 |
| 20260505051604 | 44 | 0 | 0.0 | 2.0 | 0.00 | 0.00 | 0.00 | 84 | 1005.7 |
| 20260505050106 | 44 | 0 | 0.0 | 1.0 | 0.00 | 0.00 | 0.00 | 83 | 1005.5 |
| 20260505041603 | 45 | 0 | 0.0 | 5.0 | 0.00 | 0.00 | 0.00 | 81 | 1005.0 |
| 20260505040056 | 45 | 0 | 0.0 | 1.0 | 0.00 | 0.00 | 0.00 | 81 | 1004.9 |
| 20260505034554 | 46 | 0 | 0.0 | 8.0 | 0.00 | 0.00 | 0.00 | 81 | 1004.8 |
| 20260505033045 | 45 | 127 | 0.0 | 5.0 | 0.00 | 0.00 | 0.00 | 81 | 1004.7 |
| 20260505031554 | 45 | 0 | 0.0 | 3.0 | 0.00 | 0.00 | 0.00 | 80 | 1004.3 |
| 20260505030048 | 45 | 0 | 0.0 | 3.0 | 0.00 | 0.00 | 0.00 | 80 | 1004.2 |
| 20260505024554 | 46 | 0 | 0.0 | 0.0 | 0.00 | 0.00 | 0.00 | 80 | 1003.9 |
| 20260505023052 | 46 | 0 | 0.0 | 9.0 | 0.00 | 0.00 | 0.00 | 80 | 1003.7 |
| 20260505021552 | 46 | 0 | 0.0 | 3.0 | 0.00 | 0.00 | 0.00 | 79 | 1003.6 |
| 20260505020048 | 47 | 0 | 0.0 | 9.0 | 0.00 | 0.00 | 0.00 | 77 | 1003.4 |
| 20260505014549 | 47 | 0 | 0.0 | 6.0 | 0.00 | 0.00 | 0.00 | 75 | 1003.3 |
| 20260505013107 | 48 | 0 | 0.0 | 9.0 | 0.00 | 0.00 | 0.00 | 73 | 1003.1 |
| 20260505011600 | 48 | 0 | 0.0 | 6.0 | 0.00 | 0.00 | 0.00 | 72 | 1002.8 |
| 20260505010100 | 48 | 0 | 0.0 | 6.0 | 0.00 | 0.00 | 0.00 | 70 | 1002.5 |
| 20260505004555 | 48 | 0 | 0.0 | 12.0 | 0.00 | 0.00 | 0.00 | 71 | 1002.5 |
| 20260505003103 | 47 | 0 | 0.0 | 1.0 | 0.00 | 0.00 | 0.00 | 71 | 1002.3 |
| 20260505001549 | 46 | 179 | 0.0 | 9.0 | 0.00 | 0.00 | 0.00 | 70 | 1002.3 |
| 20260505000058 | 45 | 0 | 0.0 | 1.0 | 0.00 | 0.00 | 0.00 | 73 | 1002.1 |
| 20260504234552 | 44 | 265 | 0.0 | 0.0 | 0.00 | 0.00 | 0.00 | 73 | 1002.0 |
| 20260504233100 | 45 | 0 | 0.0 | 0.0 | 0.00 | 0.00 | 0.00 | 72 | 1001.8 |
| 20260504231549 | 46 | 0 | 0.0 | 6.0 | 0.00 | 0.00 | 0.00 | 70 | 1001.6 |
| 20260504230056 | 45 | 0 | 0.0 | 0.0 | 0.00 | 0.00 | 0.00 | 72 | 1001.5 |
| 20260504224552 | 46 | 0 | 0.0 | 0.0 | 0.00 | 0.00 | 0.00 | 71 | 1001.6 |
| 20260504223104 | 47 | 0 | 0.0 | 0.0 | 0.00 | 0.00 | 0.00 | 69 | 1001.5 |
| 20260504221552 | 47 | 0 | 0.0 | 1.0 | 0.00 | 0.00 | 0.00 | 68 | 1001.2 |
| 20260504220057 | 48 | 0 | 0.0 | 0.0 | 0.00 | 0.00 | 0.00 | 67 | 1001.2 |
| 20260504214601 | 49 | 0 | 0.0 | 1.0 | 0.00 | 0.00 | 0.00 | 65 | 1001.1 |
| 20260504213057 | 49 | 0 | 0.0 | 0.0 | 0.00 | 0.00 | 0.00 | 67 | 1000.8 |
| 20260504211556 | 50 | 0 | 0.0 | 3.0 | 0.00 | 0.00 | 0.00 | 65 | 1000.6 |
| 20260504210058 | 49 | 0 | 0.0 | 12.0 | 0.00 | 0.00 | 0.00 | 66 | 1000.3 |
| 20260504204551 | 50 | 0 | 0.0 | 8.0 | 0.00 | 0.00 | 0.00 | 68 | 1000.0 |
| 20260504203048 | 49 | 0 | 0.0 | 8.0 | 0.00 | 0.00 | 0.00 | 69 | 999.8 |
| 20260504201559 | 49 | 0 | 0.0 | 13.0 | 0.00 | 0.00 | 0.00 | 72 | 999.7 |
| 20260504200050 | 49 | 0 | 0.0 | 6.0 | 0.00 | 0.00 | 0.00 | 73 | 999.4 |
| 20260504194552 | 49 | 0 | 0.0 | 8.0 | 0.00 | 0.00 | 0.00 | 75 | 998.9 |
| 20260504193049 | 49 | 0 | 0.0 | 8.0 | 0.00 | 0.00 | 0.00 | 73 | 998.9 |
| 20260504191556 | 49 | 0 | 0.0 | 2.0 | 0.00 | 0.00 | 0.00 | 75 | 998.8 |
| 20260504190058 | 49 | 0 | 0.0 | 5.0 | 0.00 | 0.00 | 0.00 | 74 | 998.5 |
| 20260504184611 | 47 | 0 | 0.0 | 5.0 | 0.00 | 0.00 | 0.00 | 81 | 998.4 |
| 20260504183049 | 45 | 0 | 0.0 | 1.0 | 0.00 | 0.00 | 0.00 | 85 | 998.3 |
| 20260504181557 | 43 | 0 | 0.0 | 4.0 | 0.00 | 0.00 | 0.00 | 87 | 998.2 |
| 20260504180049 | 43 | 0 | 0.0 | 4.0 | 0.00 | 0.00 | 0.00 | 87 | 998.2 |
| 20260504174549 | 43 | 0 | 0.0 | 2.0 | 0.00 | 0.00 | 0.00 | 87 | 998.0 |
| 20260504173049 | 43 | 0 | 0.0 | 1.0 | 0.00 | 0.00 | 0.00 | 89 | 997.6 |
| 20260504171550 | 42 | 0 | 0.0 | 2.0 | 0.00 | 0.00 | 0.00 | 90 | 997.4 |
| 20260504081552 | 37 | 0 | 0.0 | 0.0 | 0.00 | 0.00 | 0.00 | 94 | 976.5 |